Regional Weather Roundup
Issued by NWS

Home | Current Version | Previous Version | Text Only | Print | Product List | Glossary Off
Versions: 1 2 3 4 5 6 7 8 9 10 11 12 13 14 15 16 17 18 19 20 21 22 23 24 25 26 27 28 29 30 31 32 33 34 35 36 37 38 39 40 41 42 43 44 45 46 47 48 49 50

000
ASUS45 KABQ 250701
RWRNM
WEATHER ROUNDUP FOR NEW MEXICO
NATIONAL WEATHER SERVICE ALBUQUERQUE NM
1200 AM MST THU DEC 25 2014

NOTE: "FAIR" MEANS FEW OR NO CLOUDS BELOW 12,000 FEET AGL WITH NO
       SIGNIFICANT WEATHER OR OBSTRUCTIONS TO VISION.

      THIS PRODUCT IS RELEASED AS TWO VERSIONS.  ONE VERSION NEAR
      THE TOP OF THE HOUR CONTAINING PRELIMINARY DATA FROM ALBUQUERQUE
      AND OTHER STATIONS.  A FINAL VERSION WITH ADDITIONAL DATA IS
      ISSUED ABOUT 10 MINUTES AFTER THE HOUR.

NMZ501-503-504-510>518-250800-
NORTHWEST PLATEAU/NORTHCENTRAL MOUNTAINS

CITY           SKY/WX    TMP DP  RH WIND       PRES   REMARKS
FARMINGTON     CLEAR     31  13  47 E7        29.77F WCI  24
SANTA FE       PTCLDY    24   9  52 NW9       29.82F WCI  14
TAOS           CLEAR     19   9  63 W7        29.83F WCI  10

$$
NMZ402-403-502-505>509-250800-
WESTCENTRAL MOUNTAINS/SOUTHWEST MOUNTAINS

CITY           SKY/WX    TMP DP  RH WIND       PRES   REMARKS
GALLUP         CLOUDY    37  13  37 S8        29.78F WCI  31
GRANTS         PTCLDY    28  12  51 SE13      29.81F WCI  18
SILVER CITY    CLOUDY    32  14  47 W3        29.94F

$$
NMZ407-409-411-412-250800-
SOUTHERN DESERTS

CITY           SKY/WX    TMP DP  RH WIND       PRES   REMARKS
DEMING         CLOUDY    30  14  51 W6        29.94F WCI  24
HOLLOMAN AFB   CLOUDY    30  13  47 S6        29.94R WCI  24
ALAMOGORDO     MOCLDY    32   9  37 SW5       29.94R WCI  27
T OR C         CLOUDY    33  11  39 SE6       29.89F WCI  28

$$
NMZ519>523-250800-
CENTRAL VALLEYS/CENTRAL HIGHLANDS

CITY           SKY/WX    TMP DP  RH WIND       PRES   REMARKS
ALBUQUERQUE    MOCLDY    32  10  40 SE9       29.85F WCI  24
DOUBLE EAGLE   MOCLDY    29   9  43 S10       29.84F WCI  20
MORIARTY ARPT  FAIR      19  13  76 CALM      29.84F
CLINES CORNERS MOCLDY    27   8  44 W23       29.77F WCI  12
BELEN          FAIR      32   8  37 S10       29.84F WCI  23
SOCORRO        NOT AVBL

$$
NMZ524>526-539-540-250800-
SOUTHCENTRAL MOUNTAINS

CITY           SKY/WX    TMP DP  RH WIND       PRES   REMARKS
RUIDOSO        CLOUDY    32   5  32 N6        29.88F WCI  26

$$
NMZ527>531-250800-
NORTHEAST HIGHLANDS/NORTHEAST PLAINS

CITY           SKY/WX    TMP DP  RH WIND       PRES   REMARKS
LAS VEGAS      PTCLDY    34  11  38 SW14      29.70F WCI  25
RATON          PTCLDY    20  11  68 NE7       29.65F WCI  11
CLAYTON        CLOUDY    35  19  52 SW10      29.58F WCI  27

$$
NMZ532>537-250800-
EASTCENTRAL PLAINS

CITY           SKY/WX    TMP DP  RH WIND       PRES   REMARKS
TUCUMCARI      CLOUDY    45  12  26 W28G37    29.67F
CANNON AFB     CLOUDY    33  19  57 SW9       29.77F WCI  25
CLOVIS AIRPORT CLOUDY    32  19  59 SW16      29.76F WCI  21

$$
NMZ028-029-538-250800-
SOUTHEAST PLAINS

CITY           SKY/WX    TMP DP  RH WIND       PRES   REMARKS
ROSWELL        CLOUDY    32  20  61 S6        29.80F WCI  26
ARTESIA        CLOUDY    37  16  41 S8        29.84F WCI  31
CARLSBAD       MOCLDY    30  24  78 CALM      29.84F
HOBBS          PTCLDY    28  25  86 S8        29.87S WCI  20


$$


USA.gov is the U.S. government's official web portal to all federal, state and local government web resources and services.